Location: Unspecified
(40.7945°N, 111.1337°W)
Time: 21:04:36
(UTC-06:00)

Vanguard 1 - Pass Details

Date: 04 July 2019
Orbit: 653 x 3830 km, 34.3° (Epoch: 15 July)

Event Time Altitude Azimuth Distance (km) Brightness Sun altitude
Rises 22:51:51 0° 216° (SW) 7,048 14.3 -16.7°
Reaches altitude 10° 22:56:31 10° 210° (SSW) 6,341 13.9 -17.2°
Maximum altitude 23:16:30 45° 146° (SE) 4,662 13.0 -19.3°
Drops below altitude 10° 23:36:03 10° 83° (E) 6,269 13.9 -21.2°
Sets 23:40:34 0° 77° (ENE) 6,972 14.3 -21.6°
